Location: Cassagne
(43.1218°N, 0.9901°E)
Time: 09:55:34
(UTC+00:00)

Cosmos 1842 Rocket - Pass Details

Date: 17 February 2020
Orbit: 604 x 635 km, 82.5° (Epoch: 09 April)

Event Time Altitude Azimuth Distance (km) Brightness Sun altitude
Exits shadow 05:19:38 - 203° (SSW) 2,653 6.6 -17.4°
Reaches altitude 10° 05:21:18 10° 208° (SSW) 2,002 5.9 -17.1°
Maximum altitude 05:25:35 47° 282° (WNW) 841 3.8 -16.4°
Drops below altitude 10° 05:29:56 10° 357° (N) 2,028 6.1 -15.6°
Sets 05:32:16 0° 3° (N) 2,943 7.0 -15.1°
